Selinsgrove, PA

12:55 PM EDT on June 22, 2017 (GMT -0400)
Penn Valley

Weather History for KSEG - December, 2013

Change the Weather History Date:

Monday, December 9, 2013

  Actual Average (KIPT) Record (KIPT)
Temperature  
Mean Temperature 30 °F -  
Max Temperature 34 °F 40 °F 61 °F (1966)
Min Temperature 27 °F 26 °F 3 °F (2002)
Degree Days  
Heating Degree Days 34    
Moisture  
Dew Point 28 °F    
Average Humidity 93    
Maximum Humidity 100    
Minimum Humidity 89    
Precipitation  
Precipitation 0.05 in - - ()
Sea Level Pressure  
Sea Level Pressure 30.14 in    
Wind  
Wind Speed 1 mph (SSW)    
Max Wind Speed 8 mph    
Max Gust Speed -    
Visibility 3 miles    
Events Rain    
Averages and records for this station are not official NWS values.
T = Trace of Precipitation, MM = Missing Value Source: NWS Daily Summary

Daily Weather History Graph

Daily Weather History Graph

Search for Another Location

Airport or City:

Trip Planner

Search our weather history database for the weather conditions in past years. The results will help you decide how hot, cold, wet, or windy it might be!

Date:

Astronomy

Dec. 09, 2013 Rise Set
Actual Time 7:20 AM EST 4:39 PM EST
Civil Twilight 6:49 AM EST 5:10 PM EST
Nautical Twilight 6:14 AM EST 5:44 PM EST
Astronomical Twilight 5:41 AM EST 6:18 PM EST
Moon 12:09 PM EST (12/9) No Moon Set
Length of Visible Light 10h 21m
Length of Day
9h 19m
Waxing Crescent, 51% of the Moon is Illuminated
Dec 9
Waxing Crescent
Dec 17
Full
Dec 25
Last Quarter
Jan 1
New
Jan 7
First Quarter

Hourly Weather History & Observations

Time (EST) Temp. Windchill Dew Point Humidity Pressure Visibility Wind Dir Wind Speed Gust Speed Precip Events Conditions
12:00 AM 28.0 °F - 26.1 °F 92% 30.32 in 3.0 mi Calm Calm - N/A   Overcast
12:14 AM 27.0 °F - 26.1 °F 96% 30.31 in 4.0 mi Calm Calm - N/A   Overcast
12:36 AM 28.0 °F - 26.1 °F 92% 30.29 in 2.0 mi Calm Calm - N/A   Overcast
12:53 AM 28.0 °F - 26.1 °F 92% 30.30 in 2.5 mi Calm Calm - N/A   Overcast
1:05 AM 28.0 °F 24.2 °F 26.1 °F 92% 30.27 in 3.0 mi SE 3.5 mph - N/A   Overcast
1:30 AM 28.0 °F - 26.1 °F 92% 30.26 in 2.5 mi Calm Calm - N/A   Overcast
1:48 AM 28.4 °F - 26.6 °F 93% 30.26 in 2.0 mi Calm Calm - N/A   Overcast
1:53 AM 28.0 °F - 26.1 °F 92% 30.27 in 2.0 mi Calm Calm - N/A   Overcast
2:05 AM 28.0 °F - 27.0 °F 96% 30.24 in 1.8 mi Calm Calm - N/A   Overcast
2:23 AM 28.0 °F - 27.0 °F 96% 30.23 in 1.8 mi Calm Calm - N/A   Overcast
2:37 AM 28.0 °F - 27.0 °F 96% 30.22 in 2.0 mi Calm Calm - N/A   Overcast
2:53 AM 28.0 °F - 27.0 °F 96% 30.23 in 2.5 mi Calm Calm - N/A   Overcast
3:07 AM 28.0 °F - 27.0 °F 96% 30.21 in 3.0 mi Calm Calm - N/A   Overcast
3:24 AM 28.0 °F - 27.0 °F 96% 30.21 in 2.5 mi Calm Calm - N/A   Overcast
3:41 AM 28.0 °F - 26.1 °F 92% 30.18 in 1.8 mi Calm Calm - 0.00 in Rain Light Freezing Rain
3:53 AM 28.0 °F - 27.0 °F 96% 30.19 in 2.0 mi Calm Calm - 0.00 in Rain Light Freezing Rain
4:08 AM 28.9 °F - 27.0 °F 92% 30.17 in 2.0 mi Calm Calm - 0.01 in Rain Light Freezing Rain
4:21 AM 28.9 °F - 27.0 °F 92% 30.16 in 2.5 mi Calm Calm - 0.01 in   Overcast
4:24 AM 28.9 °F - 27.0 °F 92% 30.17 in 2.5 mi Calm Calm - 0.01 in Rain Light Freezing Rain
4:53 AM 28.9 °F - 27.0 °F 92% 30.17 in 2.5 mi Calm Calm - 0.02 in Rain Light Freezing Rain
5:06 AM 28.9 °F - 27.0 °F 92% 30.15 in 3.0 mi Calm Calm - 0.00 in Rain Light Freezing Rain
5:13 AM 28.9 °F - 28.0 °F 96% 30.16 in 3.0 mi Calm Calm - 0.00 in   Overcast
5:50 AM 30.2 °F - 28.4 °F 93% 30.13 in 2.5 mi Calm Calm - 0.01 in   Overcast
5:53 AM 30.0 °F - 28.0 °F 92% 30.15 in 2.5 mi Calm Calm - 0.01 in   Overcast
6:00 AM 30.0 °F - 28.0 °F 92% 30.14 in 2.5 mi Calm Calm - 0.00 in Rain Light Freezing Rain
6:24 AM 30.0 °F 26.5 °F 28.0 °F 92% 30.14 in 1.8 mi SSW 3.5 mph - 0.01 in Rain Light Freezing Rain
6:32 AM 30.0 °F 25.2 °F 28.0 °F 92% 30.12 in 2.5 mi SSW 4.6 mph - 0.01 in Rain Light Freezing Rain
6:41 AM 30.0 °F - 28.0 °F 92% 30.12 in 3.0 mi Calm Calm - 0.01 in Rain Light Freezing Rain
6:48 AM 30.2 °F - 28.4 °F 93% 30.11 in 3.0 mi Calm Calm - 0.01 in Rain Light Freezing Rain
6:53 AM 30.0 °F - 28.0 °F 92% 30.11 in 3.0 mi Calm Calm - 0.02 in Rain Light Freezing Rain
7:13 AM 30.0 °F 26.5 °F 28.0 °F 92% 30.10 in 6.0 mi SW 3.5 mph - 0.00 in   Overcast
7:21 AM 30.0 °F 26.5 °F 28.0 °F 92% 30.10 in 7.0 mi SW 3.5 mph - 0.00 in   Overcast
7:53 AM 30.9 °F - 28.0 °F 89% 30.11 in 10.0 mi Calm Calm - 0.00 in   Overcast
8:53 AM 30.9 °F - 28.0 °F 89% 30.12 in 9.0 mi Calm Calm - N/A   Overcast
9:53 AM 30.9 °F 27.5 °F 28.9 °F 92% 30.12 in 7.0 mi Variable 3.5 mph - N/A   Overcast
10:53 AM 32.0 °F 28.7 °F 30.0 °F 92% 30.08 in 4.0 mi Variable 3.5 mph - N/A   Overcast
11:45 AM 32.0 °F 27.5 °F 30.0 °F 92% 30.05 in 4.0 mi SSW 4.6 mph - N/A   Overcast
11:53 AM 32.0 °F 28.7 °F 30.0 °F 92% 30.06 in 4.0 mi SW 3.5 mph - N/A   Overcast
12:53 PM 33.1 °F 28.7 °F 30.9 °F 92% 30.03 in 3.0 mi Variable 4.6 mph - N/A   Overcast
1:30 PM 33.1 °F 27.7 °F 30.9 °F 92% 30.01 in 4.0 mi SSW 5.8 mph - N/A   Overcast
1:53 PM 33.1 °F 28.7 °F 30.9 °F 92% 30.03 in 4.0 mi SSW 4.6 mph - N/A   Overcast
2:53 PM 34.0 °F 27.2 °F 30.9 °F 89% 30.02 in 5.0 mi South 8.1 mph - N/A   Overcast
3:53 PM 34.0 °F 29.8 °F 30.9 °F 89% 30.03 in 4.0 mi SSW 4.6 mph - N/A   Overcast
4:53 PM 33.1 °F 30.0 °F 30.9 °F 92% 30.02 in 4.0 mi SW 3.5 mph - N/A   Overcast
5:53 PM 33.1 °F - 30.9 °F 92% 30.04 in 4.0 mi Calm Calm - N/A   Overcast
6:53 PM 33.1 °F - 30.9 °F 92% 30.06 in 4.0 mi Calm Calm - N/A   Mostly Cloudy
7:15 PM 33.1 °F - 30.0 °F 89% 30.05 in 3.0 mi Calm Calm - N/A   Scattered Clouds
7:53 PM 32.0 °F - 30.0 °F 92% 30.08 in 3.0 mi Calm Calm - N/A   Mostly Cloudy
8:32 PM 30.9 °F - 30.0 °F 96% 30.05 in 2.5 mi Calm Calm - N/A   Overcast
8:50 PM 30.2 °F - 30.2 °F 100% 30.06 in 2.5 mi Calm Calm - N/A   Overcast
8:53 PM 30.9 °F 27.5 °F 30.0 °F 96% 30.08 in 2.5 mi NNW 3.5 mph - N/A   Overcast
9:21 PM 32.0 °F - 30.0 °F 92% 30.06 in 2.5 mi Calm Calm - N/A   Overcast
9:53 PM 32.0 °F - 30.0 °F 92% 30.08 in 3.0 mi Calm Calm - N/A   Mostly Cloudy
10:27 PM 28.9 °F - 28.0 °F 96% 30.07 in 2.5 mi Calm Calm - N/A   Partly Cloudy
10:48 PM 30.2 °F - 28.4 °F 93% 30.06 in 5.0 mi Calm Calm - N/A   Clear
10:53 PM 30.9 °F - 28.0 °F 89% 30.07 in 7.0 mi Calm Calm - N/A   Clear
11:53 PM 30.9 °F - 28.9 °F 92% 30.07 in 5.0 mi Calm Calm - N/A   Overcast